Location: Biltmore Gardens
(41.6070°N, 83.4666°W)
Time: 01:21:08
(UTC+00:00)

Lacrosse 5 - Visible Passes

Search period start: 24 October 2020 00:00
Search period end: 03 November 2020 00:00
Orbit: 716 x 723 km, 57.0° (Epoch: 23 October)

Date Brightness Start Highest point End Pass type
(mag) Time Alt. Az. Time Alt. Az. Time Alt. Az.
24 Oct 4.1 01:04:05 10° NNW 01:06:39 14° N 01:07:01 14° N visible
25 Oct 4.1 00:10:04 10° NW 00:12:51 15° N 00:15:38 10° NNE visible
25 Oct 4.6 01:54:23 10° NNW 01:54:55 12° NNW 01:54:55 12° NNW visible
25 Oct 4.0 23:15:48 10° WNW 23:19:06 17° NNW 23:22:25 10° NNE visible
26 Oct 4.1 01:01:10 10° NNW 01:03:38 14° N 01:03:38 14° N visible
27 Oct 4.0 00:07:35 10° NNW 00:10:09 14° N 00:12:21 11° NNE visible
27 Oct 4.5 01:50:56 10° NNW 01:51:33 12° NNW 01:51:33 12° NNW visible
27 Oct 4.1 23:13:34 10° NW 23:16:21 15° N 23:19:09 10° NNE visible
28 Oct 3.9 00:57:54 10° NNW 01:00:16 16° N 01:00:16 16° N visible
29 Oct 3.9 00:04:40 10° NNW 00:07:27 14° N 00:09:01 13° NNE visible
29 Oct 4.5 01:47:25 10° NNW 01:48:13 14° NNW 01:48:13 14° NNW visible
29 Oct 4.0 23:11:05 10° NNW 23:13:39 14° N 23:16:14 10° NNE visible
30 Oct 3.7 00:54:27 10° NNW 00:56:59 20° N 00:56:59 20° N visible
31 Oct 3.6 00:01:25 10° NNW 00:04:43 17° NNE 00:05:47 16° NNE visible
31 Oct 4.3 01:43:55 10° NW 01:44:58 16° NNW 01:44:58 16° NNW visible
31 Oct 3.9 23:08:11 10° NNW 23:10:57 14° N 23:13:44 10° NE visible
01 Nov 3.4 00:50:57 10° NNW 00:53:49 25° N 00:53:49 25° N visible
01 Nov 3.3 23:57:58 10° NNW 00:01:52 22° NNE 00:02:42 21° NE visible
02 Nov 4.2 01:40:29 10° NW 01:41:55 19° NW 01:41:55 19° NW visible
02 Nov 3.6 23:04:56 10° NNW 23:08:13 17° NNE 23:11:30 10° NE visible
